Theta_e
321 320 318 322 328 328 332 329 326 327 328 328 330 333 334 336 339 340 336 338 337 335 334 325 322 319 315 316 326 332 333 332 330 325 323 328 330 330 325 326 328 328 317 315 312 312 312 312 311
320 319 320 325 326 334 331 326 326 328 329 330 331 331 333 337 337 336 337 339 336 334 333 327 320 316 313 313 316 324 329 326 322 320 327 331 330 328 327 325 327 322 319 315 312 312 312 312 311
321 318 321 325 328 330 330 326 328 329 329 330 332 335 337 336 337 336 337 338 338 337 335 327 318 313 317 317 318 315 316 319 326 325 327 330 330 329 327 320 317 320 321 315 313 313 313 313 313
320 320 320 323 330 329 326 326 329 328 327 329 330 335 335 337 337 336 337 338 337 336 335 328 317 314 329 330 325 314 316 327 326 330 330 329 327 328 328 318 314 314 315 314 314 314 314 314 314
319 321 323 324 326 325 322 323 329 327 327 329 330 332 335 336 335 336 336 336 335 336 334 328 320 316 332 332 325 317 324 328 329 327 328 328 328 326 319 315 314 313 313 313 314 315 315 315 315
320 321 325 325 326 324 322 322 326 328 327 330 329 333 336 334 335 336 334 336 336 336 331 330 321 317 332 331 329 320 328 328 327 327 328 328 327 317 313 313 313 313 313 314 315 315 315 315 316
320 325 324 326 326 323 323 323 325 327 328 329 328 330 336 334 335 335 335 334 334 335 330 332 325 317 330 331 330 320 321 323 327 326 325 325 320 313 313 313 313 314 314 315 315 315 316 317 317
320 323 325 325 326 326 324 325 326 326 327 328 327 327 334 333 334 335 334 333 333 333 330 332 330 319 319 326 322 319 316 321 326 327 325 318 315 314 314 314 314 315 315 316 315 316 316 317 317
320 323 326 326 326 324 323 324 324 325 327 327 328 329 333 331 334 334 334 333 332 333 332 332 332 328 319 317 316 314 314 318 316 323 321 322 317 316 316 315 315 316 316 316 316 316 316 317 318
323 325 326 323 321 320 323 324 323 324 326 327 328 331 334 332 334 333 333 332 332 332 333 332 332 331 329 315 313 313 313 315 317 319 324 329 324 318 318 317 317 317 317 317 317 317 317 318 319
321 322 325 320 319 318 321 323 322 323 324 326 327 332 334 332 334 333 332 333 333 331 333 333 332 331 330 316 313 312 312 316 317 318 324 323 321 318 319 318 318 318 318 318 318 318 319 318 318
320 322 324 321 317 318 319 319 322 322 323 322 324 327 331 333 333 333 332 332 334 328 332 333 335 332 331 316 313 312 312 314 315 317 318 317 317 318 319 318 318 318 319 320 319 319 319 318 319
322 321 321 317 317 317 318 318 318 319 321 322 324 327 330 330 333 332 333 333 332 328 330 333 333 332 332 318 315 314 313 313 314 315 316 317 317 318 318 319 319 320 320 320 319 319 320 320 319
324 323 320 316 317 318 319 320 318 319 319 321 326 329 331 329 333 333 333 333 332 331 328 330 332 332 331 318 318 317 315 314 315 316 317 317 318 319 320 320 321 321 321 320 320 321 321 321 322
324 324 321 316 318 321 322 325 324 320 319 321 324 329 331 332 331 333 333 333 332 332 329 329 331 332 330 322 318 318 317 316 316 317 318 319 319 320 321 321 322 322 321 321 321 321 322 323 323
319 320 322 319 319 320 323 325 325 324 319 320 322 326 329 332 332 331 333 332 333 329 328 329 328 330 331 327 324 320 319 318 317 317 318 320 321 321 322 322 322 322 322 322 322 320 319 322 321
322 325 322 323 321 320 322 324 323 325 319 319 320 322 326 330 332 332 334 332 333 329 325 320 319 327 332 328 327 323 322 320 318 318 319 320 321 322 322 322 323 321 323 322 322 320 320 320 321
325 325 325 322 322 321 320 321 321 324 320 318 319 319 322 327 330 330 333 331 333 330 323 315 315 316 323 325 326 324 323 319 319 319 320 320 322 323 324 324 323 322 322 323 321 320 320 320 320
323 324 325 323 322 322 321 322 321 323 323 323 322 320 319 322 326 328 330 331 334 332 327 319 317 315 317 321 321 320 319 318 319 319 320 321 321 323 325 324 323 322 320 321 321 320 320 320 320
325 327 325 323 319 322 323 323 322 322 323 324 325 325 321 319 322 326 329 330 334 333 330 322 318 317 316 317 317 317 317 318 319 320 320 321 323 324 325 324 323 323 322 322 321 321 320 320 320
325 326 326 325 319 319 320 322 323 322 324 324 324 325 325 322 320 323 328 329 331 333 331 325 321 318 318 318 317 318 318 319 321 321 322 322 323 325 326 325 324 323 322 322 322 321 321 320 320
327 324 325 322 323 327 320 328 324 324 323 322 324 324 325 325 323 320 325 328 329 331 332 330 324 319 320 319 319 319 320 320 321 322 324 325 326 327 327 325 324 323 323 322 322 322 322 320 320
324 323 324 323 323 322 323 324 323 322 324 324 324 324 324 325 325 321 320 324 326 328 329 330 329 325 322 322 323 323 322 321 322 323 325 327 328 328 326 323 323 324 323 322 323 322 321 321 320
318 319 318 317 321 326 325 323 325 323 323 322 323 325 325 325 325 324 320 321 324 325 327 329 329 328 327 326 325 326 327 327 326 326 326 327 328 328 325 324 324 324 324 324 324 322 321 321 320
320 323 324 326 325 327 322 324 324 322 320 320 320 322 323 323 324 325 321 319 322 325 324 325 327 327 329 329 328 327 329 329 329 329 328 328 329 328 327 325 324 324 322 322 322 321 321 320 320
321 322 321 323 322 320 317 321 322 321 321 321 322 321 321 320 321 324 322 319 320 321 321 320 321 321 325 327 326 327 328 330 329 329 329 329 328 327 327 327 325 325 324 323 322 321 320 320 319
321 323 319 317 306 317 317 318 317 316 315 316 316 316 319 320 320 319 321 319 318 320 321 322 322 321 324 324 326 326 326 327 328 328 330 330 330 329 329 329 329 326 325 323 322 321 320 319 319
319 317 321 318 319 320 318 318 318 316 315 314 315 316 316 315 317 318 318 316 316 316 319 322 323 323 322 325 326 324 324 326 327 329 329 330 330 330 329 328 330 330 328 325 322 321 321 319 318
318 320 319 319 319 321 320 318 317 314 310 311 310 310 310 310 310 312 313 314 314 313 313 313 314 317 319 322 323 325 324 324 326 327 327 329 330 330 330 326 326 330 329 327 323 322 321 320 318
317 319 319 320 320 318 317 317 311 307 308 309 310 311 311 311 310 311 310 310 310 310 311 310 310 311 311 313 319 322 324 327 327 327 326 328 330 331 330 328 327 329 330 328 325 323 321 320 319
Wind_Speed
8 7 4 4 1 2 5 4 5 7 4 3 8 8 12 16 5 6 15 10 15 15 13 8 8 9 8 10 12 9 6 5 4 7 12 13 12 12 11 11 13 15 15 16 17 17 17 17 17
4 4 3 4 1 3 1 8 4 9 11 8 6 3 4 6 8 15 17 11 16 15 11 10 10 8 9 11 10 9 6 3 7 14 17 13 11 9 11 13 13 14 15 14 16 17 17 18 18
3 3 2 2 3 5 3 1 12 14 10 7 4 7 7 5 9 13 17 15 12 17 11 10 10 9 11 11 9 7 6 10 15 18 15 12 11 11 9 10 9 15 15 14 16 16 16 18 19
3 0 4 2 6 7 4 7 18 12 3 4 3 10 8 6 13 10 23 17 17 14 10 11 11 11 12 11 9 9 11 13 16 16 15 12 10 9 8 10 10 13 13 14 15 15 16 17 18
6 3 3 3 9 4 6 8 16 8 11 8 2 7 7 8 10 20 21 20 15 11 10 12 12 13 13 8 9 9 12 14 13 14 14 12 10 9 7 8 10 12 12 13 14 15 15 16 17
4 4 3 6 9 4 4 5 4 10 9 9 3 10 6 7 12 21 16 16 14 10 11 14 14 14 14 10 8 8 11 13 15 13 12 12 10 10 9 10 11 11 12 12 13 14 15 16 16
3 2 5 8 7 6 4 6 5 7 6 7 2 5 9 9 17 22 18 17 15 13 12 14 14 15 15 11 7 6 9 13 11 11 9 9 8 8 9 10 10 10 11 11 12 13 14 15 14
8 3 8 8 5 2 6 7 1 10 6 11 4 2 7 16 24 21 22 21 18 13 12 14 14 14 14 12 10 8 8 11 13 12 9 12 9 9 10 9 9 9 9 10 11 12 12 13 13
8 3 4 9 5 5 8 4 0 6 8 4 3 3 4 15 27 26 25 24 21 15 12 13 12 12 11 11 10 10 10 9 11 14 11 9 6 8 8 8 8 8 8 9 10 9 9 9 10
3 4 6 7 9 7 8 2 9 3 7 5 5 8 12 19 26 28 27 28 25 23 17 15 14 15 9 11 12 11 11 10 10 11 10 8 5 6 6 6 7 6 6 7 7 7 6 7 7
8 7 6 7 8 8 5 3 6 4 5 11 15 16 15 22 25 26 27 28 29 26 20 20 18 19 15 11 12 12 13 12 11 11 10 10 8 6 6 5 5 5 4 5 4 5 6 5 6
3 18 11 4 3 3 3 5 2 7 4 3 8 16 16 21 26 25 28 24 27 28 23 23 23 20 17 13 13 13 12 12 11 11 10 8 8 7 5 4 3 3 3 3 3 3 4 5 6
13 16 8 5 7 9 3 2 5 10 7 5 6 16 16 19 24 25 21 20 21 26 25 23 23 21 19 16 15 14 13 12 12 11 10 9 8 7 6 4 3 2 1 1 2 3 4 4 6
7 19 8 10 12 6 4 2 9 4 3 5 10 15 17 16 22 25 21 22 20 24 25 26 21 22 19 18 17 16 15 14 14 12 11 9 8 8 6 6 4 3 2 2 2 2 3 5 8
21 5 11 10 12 5 7 8 6 9 1 5 11 12 16 15 18 27 23 23 23 25 26 26 27 25 19 18 19 18 17 17 16 15 13 12 10 9 8 7 5 5 4 3 3 2 4 4 4
5 7 9 10 14 13 11 10 19 21 3 6 11 13 17 18 19 21 25 24 23 25 26 28 28 28 22 21 18 19 19 19 17 16 14 13 13 11 10 10 8 8 7 6 5 2 1 1 3
7 6 12 8 16 4 9 7 19 23 8 5 9 11 19 18 17 17 25 25 27 27 26 32 29 31 26 23 19 20 19 19 19 18 16 15 15 14 13 12 11 10 10 8 6 4 2 2 3
7 9 8 14 8 10 11 13 9 12 11 11 9 10 11 19 21 19 27 25 26 27 28 26 29 29 31 27 24 22 21 20 20 19 18 17 17 16 16 13 13 13 12 10 7 4 3 4 5
11 8 15 6 8 8 12 16 12 22 18 17 18 16 15 15 18 20 23 24 26 29 29 29 29 31 30 31 30 27 26 24 23 22 21 20 20 18 17 14 12 10 8 8 6 6 6 6 5
11 8 11 8 5 2 8 14 14 16 16 23 26 25 22 19 18 21 24 26 32 33 32 31 33 32 34 34 33 32 29 28 26 25 25 24 24 20 18 16 14 10 7 7 8 7 8 8 7
15 10 6 7 4 2 5 9 13 13 24 26 29 31 29 24 23 25 28 29 35 37 37 37 37 35 36 35 35 34 31 29 30 30 29 30 27 24 20 18 16 14 13 14 14 13 12 11 12
17 9 6 5 4 4 6 6 8 9 17 19 28 31 33 35 32 26 31 33 35 39 39 39 40 39 39 38 38 38 38 38 37 33 31 29 26 26 22 21 20 18 19 19 18 19 15 16 16
4 13 11 5 2 2 3 3 4 9 14 15 21 35 38 39 37 39 32 36 35 34 40 43 41 41 42 43 42 41 40 39 36 34 34 33 29 27 24 22 22 23 22 22 22 20 20 20 19
8 7 7 4 0 6 10 7 5 9 13 8 16 23 26 33 41 40 41 37 36 34 37 42 43 44 44 45 44 44 44 42 40 39 37 35 31 29 26 24 23 22 25 25 24 22 24 23 23
9 9 3 6 5 11 8 10 13 11 10 6 9 18 18 20 32 40 40 37 38 39 37 40 44 46 47 47 47 47 47 45 44 42 39 37 34 33 32 29 26 25 21 22 24 26 26 26 26
21 18 4 8 5 5 1 7 5 19 29 23 22 20 19 14 14 34 37 37 39 41 39 39 42 45 48 49 50 48 47 47 46 45 43 42 41 38 32 33 31 28 24 23 24 25 27 28 27
9 12 5 4 1 2 5 5 7 9 8 11 14 15 14 15 17 13 28 29 32 38 41 40 42 43 47 49 49 49 49 49 50 48 45 44 44 42 36 34 35 35 32 29 28 21 23 26 27
10 7 4 2 5 4 5 5 5 5 9 6 3 7 11 7 9 12 17 21 26 28 32 36 40 43 45 47 48 48 49 49 49 48 48 47 47 46 41 37 37 39 37 35 31 29 24 22 26
6 12 6 5 3 4 2 4 5 5 4 7 7 6 4 3 3 7 10 14 18 22 28 31 34 39 43 45 46 49 49 50 48 48 48 48 47 48 46 40 37 37 40 39 36 33 30 25 24
8 12 8 6 5 2 4 5 2 9 7 11 13 12 9 9 8 8 9 1 12 13 19 27 30 31 33 39 43 44 46 48 48 48 47 46 46 45 45 44 39 37 40 43 41 38 34 30 25
Wind_Direction
307 309 328 328 351 201 260 111 91 114 117 48 47 28 86 49 30 105 131 186 164 161 151 140 122 112 123 145 151 143 155 133 130 113 103 93 95 103 97 100 88 81 82 82 81 78 76 73 70
296 297 336 280 230 256 340 117 148 91 98 106 81 5 56 77 70 133 139 148 162 152 149 137 123 118 123 132 150 167 172 150 125 113 108 109 99 88 90 111 93 91 84 85 81 76 76 72 72
292 280 291 223 227 254 60 91 100 98 127 137 98 43 36 79 116 121 144 162 161 138 155 131 121 117 113 111 111 127 142 127 113 108 116 119 114 98 90 96 105 91 86 84 80 79 77 76 75
325 44 274 278 251 242 45 91 109 119 117 124 108 90 86 89 139 144 143 156 145 154 154 140 124 121 108 106 96 113 117 121 124 123 124 124 115 126 106 90 95 92 92 81 80 78 77 77 77
338 288 250 224 263 69 52 32 134 165 149 157 190 125 92 125 153 143 168 170 148 158 163 147 128 124 117 121 101 103 117 120 116 117 123 125 117 114 122 109 99 92 86 82 80 77 77 77 77
304 264 237 234 222 134 96 120 170 163 129 105 154 110 129 182 154 149 153 131 146 179 171 151 138 135 129 142 122 108 114 122 126 122 124 123 123 109 108 106 101 93 85 81 78 75 76 77 77
283 295 261 261 250 129 139 131 202 151 136 165 94 115 148 181 160 147 147 163 164 195 175 157 148 147 145 153 149 130 131 125 115 134 138 129 108 107 109 105 99 92 84 81 81 78 77 76 73
296 256 279 271 273 86 103 127 278 150 133 127 156 141 165 181 154 157 173 168 166 184 175 170 159 159 164 162 164 153 141 139 135 139 147 126 129 118 111 106 101 92 86 82 80 77 77 75 67
327 260 246 252 262 89 131 131 110 92 110 113 135 48 167 168 161 170 175 177 174 166 181 181 171 166 169 176 167 154 154 152 139 139 116 112 130 117 111 108 100 95 89 81 78 77 76 72 62
223 257 245 2 17 25 120 226 150 142 142 160 130 97 168 165 169 176 180 185 180 167 189 186 175 162 192 175 173 164 158 153 145 139 126 126 172 117 121 117 106 102 97 85 79 73 62 52 46
212 250 300 54 32 23 26 203 131 191 191 208 182 164 182 170 174 186 187 191 188 177 188 186 174 168 202 175 176 171 169 165 162 167 161 185 172 160 147 134 122 109 101 88 74 54 49 49 46
279 239 234 259 64 43 21 348 134 220 253 129 181 199 199 179 184 189 195 199 202 187 188 185 173 186 200 187 182 179 184 178 181 184 186 179 172 176 155 153 121 99 73 73 48 46 35 34 38
274 270 225 164 152 108 94 337 347 298 237 241 166 186 205 190 193 196 193 199 207 193 193 189 193 192 198 190 186 188 184 183 189 191 190 184 183 181 177 177 174 145 139 66 38 24 24 25 21
264 232 216 189 195 170 107 353 355 51 255 167 177 183 208 208 192 195 196 197 205 211 192 194 195 197 202 194 190 198 194 191 200 198 198 196 196 194 194 199 201 207 215 237 285 358 8 22 10
207 266 266 195 226 201 225 299 254 278 238 210 195 198 201 215 202 196 201 200 200 219 199 208 193 198 195 201 199 202 204 200 203 205 202 204 209 208 210 214 220 239 239 250 260 316 43 29 341
197 224 240 192 211 233 154 244 251 255 180 251 220 202 205 216 217 208 208 203 201 219 207 211 203 197 190 206 209 207 209 209 210 212 215 212 215 217 220 224 230 242 242 240 244 270 236 228 346
194 209 224 223 190 140 188 235 234 240 205 244 267 227 207 207 213 220 222 209 201 216 221 216 215 202 196 196 209 213 217 215 214 219 222 222 223 227 228 233 235 246 238 236 237 266 298 318 322
182 215 219 217 215 201 205 232 250 253 200 211 233 266 237 206 217 225 222 228 199 217 224 216 214 215 210 202 203 216 222 221 223 227 231 233 232 233 239 244 253 258 240 230 238 272 303 296 307
228 212 218 207 226 186 224 238 227 239 238 239 242 237 244 240 221 236 222 228 207 217 221 221 215 214 213 210 212 220 223 225 225 230 232 236 240 234 244 249 250 257 246 224 236 267 276 282 274
250 229 216 234 55 236 246 244 244 248 245 251 257 252 235 233 225 222 223 220 213 215 220 217 221 215 215 216 220 226 229 232 234 233 233 237 243 241 243 245 249 246 254 258 269 265 265 265 267
230 214 217 233 122 316 1 275 262 254 250 245 245 245 245 232 221 217 220 223 213 214 216 217 224 221 220 221 221 224 227 231 232 231 234 237 239 241 241 239 243 241 245 248 260 256 250 255 264
215 182 216 116 135 224 168 279 238 241 239 239 241 243 242 234 231 221 220 223 222 220 219 221 225 226 224 225 227 228 229 229 233 235 240 240 238 243 241 240 236 240 244 248 254 254 245 255 257
255 195 206 167 177 56 210 265 258 228 247 242 230 231 232 233 229 223 221 227 231 226 223 225 226 227 229 230 231 232 233 237 241 241 241 243 242 239 243 238 234 234 239 247 248 252 255 254 256
136 87 60 62 330 241 211 202 223 235 239 233 245 244 232 235 228 227 224 225 227 232 229 227 228 229 231 233 234 234 236 237 238 241 241 243 242 238 239 236 236 242 244 244 250 255 256 258 261
147 152 145 201 217 247 170 204 241 273 269 250 290 284 264 243 234 227 223 223 224 227 230 230 228 231 232 235 237 237 238 239 242 245 244 242 243 239 237 234 235 243 249 245 250 255 259 260 261
182 176 158 198 204 210 272 232 243 218 246 263 265 261 265 253 248 227 225 226 229 233 233 233 233 235 234 236 240 241 241 241 243 246 245 246 248 252 246 239 237 239 249 246 251 253 258 259 258
175 203 195 100 122 61 198 255 301 230 250 247 255 263 252 254 253 234 225 225 233 236 239 242 241 240 238 239 240 242 244 243 244 246 245 248 253 253 250 244 242 243 244 251 249 253 257 259 256
184 140 177 258 159 224 240 226 227 195 228 240 224 233 238 229 237 239 245 240 235 238 244 246 247 247 246 242 243 245 247 248 248 247 247 247 250 254 252 245 242 241 243 243 239 237 243 254 252
178 184 210 174 201 186 150 246 210 147 136 119 89 84 85 130 191 226 229 243 249 241 240 248 249 249 248 247 246 246 247 248 248 248 249 249 248 251 252 252 247 242 242 242 237 237 240 242 250
203 182 197 188 209 194 125 273 61 137 136 137 141 132 88 80 60 61 51 276 245 246 243 247 248 248 251 250 250 249 249 248 247 250 251 248 245 244 250 252 251 245 238 238 236 238 237 238 251